User: anonymous   Login
Location: Alvis C Story Elementary School
(33.0968°N, 96.6364°W)
Time: 04:58:31
(UTC+00:00)
Language:

Cosmos 1328 Rocket - Orbit

View from above orbital plane
View from above orbital plane
View from above satellite
View from above satellite

Ground track
Ground track

The orbit data is extracted from the following two-line orbital elements,

1 12988U 81117B   22139.88656319  .00000545  00000-0  60960-4 0  9998
2 12988  82.5253 186.8674 0018738  32.0634 140.6453 14.84941343186560
Epoch (UTC): 19 May 2022 21:16:39
Eccentricity: 0.0018738
inclination: 82.5253°
perigee height: 600 km
apogee height: 627 km
right ascension of ascending node: 186.8674°
argument of perigee: 32.0634°
revolutions per day: 14.84941343
mean anomaly at epoch: 140.6453°
orbit number at epoch: 18656

The dashed part of the orbit path shows where the satellite is in the earth's shadow,  

DLR